[[{"header":{"parameterUnit":"m.s-1","parameterCategory":1,"la1":30.2991,"la2":30.254,"lo1":-89.0895,"lo2":-89.0444,"dy":0.0017,"dx":0.0017,"nx":28,"ny":28,"refTime":"2023-09-12T03:00:00:Z","depth":0,"parameterNumber":2,"parameterNumberName":"U-component_of_WINDS"},"data":[0,0,0,0,0,0,0,0,0,0,0,0,0,0,0,0,0,0,0,0,0,0,0,0,0,0,0,0,0,0,0,0,0,0,0,0,0,0,0,0,0,0,0,0,0,0,0,0,0,0,0,0,0,0,0,0,0,0,1.2101,1.2101,0,1.2095,1.2095,1.2095,1.2049,1.2048,1.2047,1.2046,1.2043,1.2044,1.2045,0,0,0,0,0,0,0,0,0,0,0,0,0,1.2073,1.2074,1.2101,1.2101,1.21,1.2095,1.2095,1.2095,1.2049,1.2048,1.2047,1.2045,1.2042,1.2044,1.2045,0,0,0,0,0,0,0,0,0,0,0,0,0,1.2078,1.2074,1.2101,1.2077,1.2075,1.2095,1.2095,1.2095,1.205,1.2048,1.2046,1.2045,1.2042,1.2044,1.2045,1.2089,0,0,1.205,1.205,0,0,0,0,0,0,0,0,1.2078,1.2079,1.208,1.2079,1.2076,1.2071,1.2085,1.2093,1.205,1.2059,1.2046,1.2044,1.2054,1.2054,1.2057,1.2089,1.2088,1.205,1.2051,1.2051,1.2052,0,0,0,0,0,0,0,1.2078,1.2079,1.2099,1.2081,1.2078,1.2067,1.2066,1.2086,1.2066,1.2058,1.2055,1.2055,1.2052,1.2056,1.2057,1.2088,1.205,1.2051,1.2052,1.2052,1.2156,1.2158,0,0,0,0,0,0,1.208,1.2079,1.2099,1.2098,1.2073,1.2069,1.2068,1.2075,1.2066,1.2063,1.2056,1.2053,1.2054,1.2055,1.2056,1.2107,1.2051,1.2053,1.2053,1.2154,1.2157,1.2159,0,0,0,0,0,0,1.208,1.2083,1.2099,1.2088,1.2089,1.2072,1.2079,1.2075,1.2079,1.2064,1.2061,1.2063,1.2053,1.2054,1.2081,1.2107,1.2053,1.2055,1.2152,1.2155,1.2158,1.221,0,0,0,0,0,0,1.2079,1.2083,1.2099,1.2089,1.209,1.2123,1.2081,1.2077,1.2081,1.2076,1.207,1.2067,1.2052,1.2079,1.2083,1.2108,1.2056,1.215,1.2154,1.2157,1.2206,1.2214,1.2221,0,0,0,0,0,1.2079,1.2114,1.21,1.2102,1.2109,1.2125,1.2126,1.2106,1.2083,1.21,1.2091,1.2068,1.2103,1.2082,1.2086,1.2112,1.2148,1.2153,1.2157,1.2202,1.2212,1.2221,0,0,0,0,0,0,1.2128,1.2112,1.2096,1.2129,1.2128,1.2117,1.2137,1.2117,1.2124,1.2119,1.2095,1.2094,1.2125,1.2121,1.2098,1.2154,1.2122,1.2127,1.2155,1.2165,1.2172,1.2173,1.2057,0,0,0,0,0,1.2142,1.2155,1.2141,1.2171,1.2172,1.2155,1.216,1.2145,1.2144,1.2144,1.2137,1.2137,1.2148,1.2156,1.2166,1.2205,1.2203,1.2225,1.2232,1.2239,1.2244,1.2265,1.2274,1.2173,1.2173,1.2172,0,0,1.2173,1.2166,1.2175,1.2181,1.2179,1.2194,1.2155,1.2172,1.2183,1.2147,1.2171,1.2166,1.2165,1.2199,1.2213,1.2196,1.2271,1.2244,1.2249,1.2251,1.227,1.228,1.2288,1.2175,1.2175,1.2174,0,0,1.2235,1.2231,1.2256,1.2255,1.2252,1.224,1.2246,1.2238,1.2233,1.2257,1.223,1.2244,1.2263,1.2264,1.2267,1.2331,1.231,1.2335,1.2375,1.2396,1.2404,1.2411,1.2434,1.2443,1.2339,1.2339,1.234,0,1.2274,1.2294,1.2272,1.2291,1.2295,1.2262,1.2288,1.2288,1.2289,1.2292,1.2274,1.2298,1.2295,1.2328,1.2344,1.2347,1.2354,1.2335,1.2404,1.2411,1.2417,1.2439,1.2448,1.2342,1.2342,1.2342,1.2342,0,1.2342,1.2357,1.2377,1.2378,1.2384,1.2407,1.2389,1.2398,1.2382,1.2373,1.2398,1.2394,1.2402,1.2409,1.2394,1.244,1.243,1.2408,1.2375,1.243,1.2451,1.2459,1.2347,1.2346,1.2345,1.2344,0,0,1.2435,1.2424,1.2432,1.2432,1.2427,1.2438,1.246,1.2467,1.2476,1.2477,1.2495,1.2513,1.2493,1.2496,1.2481,1.25,1.2551,1.2475,1.2475,1.249,1.2603,1.2619,1.2629,1.2537,1.2539,1.254,1.2603,0,1.2496,1.2531,1.2512,1.255,1.2564,1.2533,1.2552,1.2551,1.2543,1.2555,1.2546,1.2559,1.2531,1.2533,1.255,1.2541,1.2573,1.2537,1.2555,1.2555,1.2556,1.264,1.2657,1.2717,1.2611,1.2612,1.2613,0,1.2572,1.2576,1.2616,1.2608,1.2613,1.263,1.2636,1.2647,1.2646,1.2639,1.2643,1.2624,1.2645,1.2612,1.2642,1.2617,1.2624,1.2621,1.2623,1.2624,1.2588,1.2644,1.2735,1.2744,1.2625,1.2624,1.2623,0,1.2637,1.2653,1.2678,1.268,1.2671,1.2684,1.2682,1.2679,1.2685,1.269,1.2694,1.2702,1.2706,1.2713,1.2697,1.2675,1.2729,1.2695,1.2725,1.2725,1.2738,1.2737,1.2832,1.2741,1.2741,1.2741,1.2741,0,1.2707,1.2732,1.2708,1.2724,1.2751,1.2729,1.2758,1.2752,1.275,1.2765,1.2739,1.2754,1.2731,1.2744,1.2732,1.2759,1.2761,1.2756,1.2753,1.2759,1.276,1.2763,1.2759,1.2743,1.2743,1.2742,1.2742,0,1.2784,1.2769,1.2795,1.2785,1.2783,1.2804,1.2796,1.2811,1.2801,1.282,1.2823,1.2808,1.2822,1.2807,1.2819,1.2811,1.2847,1.2837,1.2848,1.2845,1.2875,1.2873,1.2976,1.2989,1.289,1.2891,1.2891,0,1.283,1.2849,1.2841,1.2849,1.2848,1.2861,1.2866,1.2846,1.2853,1.2854,1.2869,1.288,1.2888,1.2912,1.2902,1.2912,1.2903,1.2938,1.2904,1.291,1.2904,1.2903,1.2905,1.2945,1.2946,1.2947,1.2948,0,1.2914,1.2905,1.2914,1.2921,1.2929,1.2933,1.2936,1.2944,1.2922,1.2932,1.2946,1.2952,1.2965,1.2977,1.2984,1.2982,1.2962,1.2959,1.2966,1.2973,1.2978,1.2976,1.2867,1.2957,1.2956,1.2955,1.2955,1.2954,1.2977,1.2993,1.299,1.3001,1.3001,1.3004,1.3017,1.3009,1.302,1.3028,1.3015,1.3033,1.3032,1.3039,1.3039,1.3053,1.3038,1.3049,1.3051,1.3055,1.3059,1.2976,1.3054,1.3054,1.3054,1.3053,1.3053,0,1.306,1.3057,1.3067,1.3071,1.308,1.306,1.3062,1.3071,1.3086,1.3087,1.3095,1.3111,1.3123,1.3115,1.3124,1.3137,1.3128,1.314,1.314,1.314,1.3072,1.3065,1.3147,1.3147,1.3147,1.3147,1.3147,1.3147,1.3104,1.313,1.3121,1.3146,1.3142,1.3159,1.3162,1.3165,1.3165,1.3184,1.3193,1.3187,1.3184,1.3194,1.3204,1.3201,1.3207,1.3222,1.3216,1.3153,1.3144,1.3135,1.3129,1.3223,1.3223,1.3283,1.3283,1.3284]},{"header":{"parameterUnit":"m.s-1","parameterCategory":1,"la1":30.2991,"la2":30.254,"lo1":-89.0895,"lo2":-89.0444,"dy":0.0017,"dx":0.0017,"nx":28,"ny":28,"refTime":"2023-09-12T03:00:00:Z","depth":0,"parameterNumber":3,"parameterNumberName":"V-component_of_WINDS"},"data":[0,0,0,0,0,0,0,0,0,0,0,0,0,0,0,0,0,0,0,0,0,0,0,0,0,0,0,0,0,0,0,0,0,0,0,0,0,0,0,0,0,0,0,0,0,0,0,0,0,0,0,0,0,0,0,0,0,0,-0.4084,-0.4084,0,-0.4119,-0.4119,-0.412,-0.4126,-0.4125,-0.4125,-0.4125,-0.416,-0.4162,-0.4163,0,0,0,0,0,0,0,0,0,0,0,0,0,-0.4023,-0.4024,-0.4084,-0.4084,-0.4085,-0.4119,-0.4119,-0.412,-0.4126,-0.4125,-0.4125,-0.4124,-0.416,-0.4161,-0.4163,0,0,0,0,0,0,0,0,0,0,0,0,0,-0.4053,-0.4024,-0.4084,-0.4092,-0.4093,-0.4119,-0.4119,-0.412,-0.4126,-0.4125,-0.4125,-0.4124,-0.4159,-0.4161,-0.4163,-0.4184,0,0,-0.4169,-0.417,0,0,0,0,0,0,0,0,-0.4051,-0.4055,-0.409,-0.4091,-0.4093,-0.4117,-0.4111,-0.4141,-0.4126,-0.4113,-0.4125,-0.4124,-0.4146,-0.4149,-0.4157,-0.4185,-0.4187,-0.4169,-0.417,-0.4171,-0.4171,0,0,0,0,0,0,0,-0.4049,-0.4053,-0.4098,-0.4091,-0.4092,-0.4094,-0.4098,-0.4117,-0.4132,-0.4114,-0.4115,-0.4119,-0.4147,-0.4155,-0.4158,-0.4187,-0.4169,-0.417,-0.4172,-0.4172,-0.4236,-0.4237,0,0,0,0,0,0,-0.4045,-0.4052,-0.4097,-0.4099,-0.407,-0.4095,-0.4099,-0.411,-0.4132,-0.4135,-0.4119,-0.4119,-0.4152,-0.4156,-0.4159,-0.4186,-0.4171,-0.4173,-0.4174,-0.4235,-0.4236,-0.4237,0,0,0,0,0,0,-0.4044,-0.4049,-0.4095,-0.4075,-0.4081,-0.4097,-0.4108,-0.4111,-0.4119,-0.4135,-0.4138,-0.4125,-0.4152,-0.4156,-0.4178,-0.4187,-0.4173,-0.4175,-0.4235,-0.4236,-0.4236,-0.4239,0,0,0,0,0,0,-0.4042,-0.4049,-0.4056,-0.4076,-0.4082,-0.4113,-0.4109,-0.4112,-0.4122,-0.4122,-0.4141,-0.4144,-0.4152,-0.4175,-0.418,-0.4189,-0.4176,-0.4234,-0.4235,-0.4236,-0.4238,-0.4239,-0.4241,0,0,0,0,0,-0.404,-0.4055,-0.4057,-0.4062,-0.4092,-0.4114,-0.4118,-0.4127,-0.4123,-0.4131,-0.4142,-0.4143,-0.4185,-0.4177,-0.4182,-0.4193,-0.4233,-0.4235,-0.4236,-0.4237,-0.4239,-0.4241,0,0,0,0,0,0,-0.4036,-0.4058,-0.406,-0.4082,-0.4096,-0.4115,-0.4125,-0.4128,-0.4144,-0.4143,-0.4153,-0.4157,-0.4179,-0.4188,-0.4179,-0.4215,-0.4209,-0.4211,-0.4208,-0.421,-0.4212,-0.4209,-0.4178,0,0,0,0,0,-0.4038,-0.4054,-0.4072,-0.4089,-0.4096,-0.411,-0.4119,-0.4125,-0.414,-0.4146,-0.4158,-0.4173,-0.419,-0.42,-0.4216,-0.4239,-0.4244,-0.4249,-0.425,-0.4251,-0.4254,-0.4268,-0.4271,-0.4241,-0.4241,-0.4241,0,0,-0.4042,-0.4056,-0.4065,-0.4089,-0.4101,-0.4117,-0.4115,-0.4132,-0.4144,-0.4149,-0.417,-0.4179,-0.4197,-0.4219,-0.423,-0.4227,-0.4263,-0.4253,-0.4254,-0.4256,-0.4269,-0.4272,-0.4275,-0.4242,-0.4242,-0.4242,0,0,-0.4058,-0.4069,-0.4086,-0.4098,-0.4116,-0.4125,-0.4129,-0.4147,-0.4154,-0.4176,-0.418,-0.4195,-0.4223,-0.4235,-0.4245,-0.4267,-0.4269,-0.4271,-0.428,-0.4293,-0.4296,-0.4298,-0.4307,-0.431,-0.4273,-0.4273,-0.4273,0,-0.4061,-0.4085,-0.4094,-0.4112,-0.4123,-0.4128,-0.4145,-0.4156,-0.4178,-0.4186,-0.4183,-0.4219,-0.4231,-0.4257,-0.4263,-0.427,-0.4276,-0.427,-0.4295,-0.4297,-0.4299,-0.4308,-0.4311,-0.4274,-0.4274,-0.4274,-0.4274,0,-0.4088,-0.4105,-0.4117,-0.4139,-0.4151,-0.4168,-0.418,-0.4191,-0.4196,-0.4205,-0.4228,-0.4242,-0.4262,-0.4268,-0.4273,-0.4296,-0.4294,-0.4293,-0.4287,-0.4302,-0.4311,-0.4314,-0.4274,-0.4274,-0.4274,-0.4274,0,0,-0.4103,-0.413,-0.4134,-0.4145,-0.4166,-0.4179,-0.4197,-0.4216,-0.4226,-0.4242,-0.4257,-0.4281,-0.4281,-0.4292,-0.4298,-0.431,-0.4328,-0.4307,-0.4308,-0.4312,-0.4356,-0.4357,-0.4361,-0.4329,-0.433,-0.433,-0.4355,0,-0.4122,-0.4154,-0.4163,-0.4191,-0.4207,-0.4213,-0.4228,-0.4243,-0.4252,-0.4268,-0.4278,-0.4295,-0.4293,-0.43,-0.4312,-0.4323,-0.4337,-0.4321,-0.4345,-0.4346,-0.4342,-0.4365,-0.4367,-0.4389,-0.4358,-0.4358,-0.4359,0,-0.4148,-0.4165,-0.4194,-0.4214,-0.4221,-0.4235,-0.4255,-0.4269,-0.4286,-0.4292,-0.4305,-0.431,-0.433,-0.4323,-0.4351,-0.434,-0.435,-0.4357,-0.4358,-0.4362,-0.4354,-0.437,-0.4396,-0.4399,-0.4364,-0.4363,-0.4363,0,-0.4158,-0.4187,-0.4209,-0.4218,-0.4241,-0.4251,-0.4261,-0.4277,-0.4289,-0.4306,-0.4314,-0.4332,-0.4343,-0.4357,-0.4368,-0.4361,-0.4395,-0.4388,-0.4401,-0.4401,-0.4408,-0.4408,-0.4437,-0.4413,-0.4413,-0.4413,-0.4413,0,-0.4179,-0.4197,-0.4214,-0.4227,-0.4248,-0.4258,-0.4278,-0.4288,-0.4303,-0.4319,-0.4325,-0.4339,-0.4352,-0.4368,-0.4376,-0.4399,-0.4403,-0.4409,-0.4411,-0.4409,-0.4409,-0.4417,-0.4416,-0.4414,-0.4414,-0.4413,-0.4413,0,-0.4193,-0.4205,-0.4229,-0.4249,-0.4255,-0.4269,-0.4287,-0.43,-0.431,-0.433,-0.4335,-0.4351,-0.4371,-0.4382,-0.4407,-0.4413,-0.4438,-0.4439,-0.4433,-0.4434,-0.4446,-0.4445,-0.4482,-0.4488,-0.4459,-0.4459,-0.446,0,-0.4206,-0.422,-0.4242,-0.4253,-0.4264,-0.4282,-0.4294,-0.4305,-0.4317,-0.4338,-0.435,-0.437,-0.4387,-0.4419,-0.4432,-0.4452,-0.4454,-0.4466,-0.4457,-0.4455,-0.4456,-0.4455,-0.4457,-0.4467,-0.4468,-0.4468,-0.4468,0,-0.4228,-0.4234,-0.4251,-0.4271,-0.4286,-0.4302,-0.4318,-0.4326,-0.434,-0.4354,-0.4375,-0.4388,-0.4414,-0.4435,-0.4456,-0.4466,-0.447,-0.4471,-0.4475,-0.4473,-0.447,-0.4473,-0.4438,-0.447,-0.447,-0.447,-0.4469,-0.4469,-0.4243,-0.4257,-0.4275,-0.4294,-0.4308,-0.4323,-0.4337,-0.4349,-0.4366,-0.4389,-0.4394,-0.4416,-0.4434,-0.4462,-0.4474,-0.4491,-0.449,-0.4495,-0.4497,-0.4498,-0.45,-0.4466,-0.4495,-0.4495,-0.4495,-0.4495,-0.4495,0,-0.4267,-0.4279,-0.4297,-0.432,-0.4336,-0.4337,-0.4355,-0.4369,-0.4388,-0.4404,-0.4421,-0.4446,-0.4466,-0.4482,-0.4503,-0.4514,-0.4516,-0.4519,-0.4519,-0.4522,-0.4499,-0.4494,-0.4517,-0.4517,-0.4517,-0.4517,-0.4517,-0.4517,-0.4282,-0.4305,-0.4313,-0.4343,-0.4355,-0.4377,-0.4387,-0.4402,-0.4415,-0.4442,-0.4459,-0.4469,-0.4485,-0.4508,-0.4527,-0.4531,-0.4539,-0.4542,-0.4546,-0.4525,-0.4523,-0.4521,-0.4516,-0.4543,-0.4543,-0.4567,-0.4568,-0.4568]}]]